Location: Home
(42.5358°N, 72.7383°W)
Time: 16:58:55
(UTC-04:00)

Kosmos-337 - Pass Details

Date: 05 July 2022
Orbit: 1467 x 1552 km, 74.0° (Epoch: 18 August)

Event Time Altitude Azimuth Distance (km) Brightness Sun altitude
Rises 03:30:03 0° 330° (NNW) 4,729 ? -15.6°
Reaches altitude 10° 03:33:40 10° 318° (NW) 3,737 ? -15.2°
Maximum altitude 03:40:34 25° 269° (W) 2,712 ? -14.4°
Enters shadow 03:45:08 17° 230° (SW) 3,179 ? -13.9°
